GW0707 Weather Reports


time (UTC)temp
C
wind
direction
speed
KPH
gust
KPH
rain 1hr
cm
rain 24hr
cm
rain mn
cm
humidity
%
barometer
mb
20260503202703 15 356 4.8 11.3 0.00 0.03 0.03 78 1014.2
20260503201803 15 352 3.2 11.3 0.00 0.03 0.03 78 1014.0
20260503200903 15 2 4.8 11.3 0.00 0.03 0.03 78 1013.7
20260503200003 15 352 4.8 12.9 0.00 0.03 0.03 78 1013.6
20260503195403 15 353 6.4 14.5 0.00 0.03 0.03 78 1013.6
20260503194503 15 347 4.8 12.9 0.00 0.03 0.03 77 1013.5
20260503193603 16 354 4.8 14.5 0.00 0.03 0.03 77 1013.4
20260503192703 16 355 3.2 9.7 0.00 0.03 0.03 77 1013.3
20260503192014 16 347 4.8 14.5 0.00 0.03 0.03 77 1013.2
20260503191113 16 337 3.2 9.7 0.00 0.03 0.03 77 1013.3
20260503190003 16 7 3.2 16.1 0.00 0.03 0.03 76 1013.2
20260503185403 16 5 6.4 17.7 0.00 0.03 0.03 76 1013.1
20260503184503 16 338 4.8 17.7 0.00 0.03 0.03 75 1013.0
20260503183603 16 6 8.0 16.1 0.00 0.03 0.03 74 1012.7
20260503182704 16 358 9.7 22.5 0.00 0.03 0.03 74 1012.8
20260503182014 16 357 9.7 22.5 0.00 0.03 0.03 73 1012.9
20260503180903 17 4 8.0 22.5 0.00 0.03 0.03 73 1012.9
20260503180004 17 359 9.7 22.5 0.00 0.03 0.03 72 1013.0
20260503175403 17 5 8.0 22.5 0.00 0.03 0.03 71 1013.0
20260503174713 17 338 11.3 22.5 0.00 0.03 0.03 70 1012.9
20260503173603 18 336 8.0 22.5 0.00 0.03 0.03 68 1013.0
20260503172914 18 330 9.7 24.1 0.00 0.03 0.03 67 1013.0
20260503171803 18 333 11.3 24.1 0.00 0.03 0.03 67 1012.7
20260503170903 19 349 12.9 27.4 0.00 0.03 0.03 65 1012.9
20260503150903 21 308 12.9 27.4 0.00 0.03 0.03 63 1012.7
20260503150213 21 319 11.3 27.4 0.00 0.03 0.03 63 1012.5
20260503130903 19 321 8.0 17.7 0.00 0.03 0.03 72 1013.4
20260503130214 18 312 9.7 17.7 0.00 0.03 0.03 74 1013.3
20260503081113 14 78 0.0 3.2 0.00 0.03 0.03 90 1013.9
20260503072703 13 0 0.0 0.0 0.00 0.03 0.03 91 1013.9
20260503071803 13 354 0.0 1.6 0.00 0.03 0.03 90 1013.7
20260503070903 13 352 0.0 1.6 0.00 0.03 0.03 91 1013.8
20260503070214 13 351 0.0 1.6 0.00 0.03 0.03 91 1013.8
20260503054503 13 28 0.0 1.6 0.00 0.00 0.00 91 1013.8
20260503053603 13 19 0.0 1.6 0.00 0.00 0.00 91 1013.6
20260503052703 13 9 0.0 1.6 0.00 0.00 0.00 91 1013.6
20260503051803 13 26 0.0 3.2 0.00 0.00 0.00 91 1013.2
20260503050903 13 258 0.0 1.6 0.00 0.00 0.00 91 1013.5
20260503050003 13 254 0.0 1.6 0.00 0.00 0.00 91 1013.6
20260503045403 13 271 0.0 1.6 0.00 0.00 0.00 91 1013.8
20260503044504 13 0 0.0 0.0 0.00 0.00 0.00 91 1013.6
20260503043603 13 264 0.0 1.6 0.00 0.00 0.00 91 1013.6
20260503042703 13 268 0.0 1.6 0.00 0.00 0.00 91 1013.3
20260503041803 13 284 0.0 1.6 0.00 0.00 0.00 91 1013.2
20260503040903 13 224 0.0 1.6 0.00 0.00 0.00 91 1013.3
20260503040003 13 196 0.0 1.6 0.00 0.00 0.00 91 1013.3
20260503035403 13 188 0.0 1.6 0.00 0.00 0.00 91 1013.5
20260503034503 13 316 0.0 1.6 0.00 0.00 0.00 91 1013.3
20260503033603 13 0 0.0 0.0 0.00 0.00 0.00 91 1013.4
20260503032913 13 269 0.0 1.6 0.00 0.00 0.00 90 1013.5
20260503031803 13 265 0.0 1.6 0.00 0.00 0.00 90 1013.6
20260503030903 13 0 0.0 0.0 0.00 0.00 0.00 90 1013.6
20260503030004 13 266 0.0 1.6 0.00 0.00 0.00 90 1013.6
20260503025403 13 267 0.0 1.6 0.00 0.00 0.00 90 1014.0
20260503024503 13 0 0.0 0.0 0.00 0.00 0.00 90 1013.8
20260503023813 13 0 0.0 0.0 0.00 0.00 0.00 90 1013.6
20260503022703 13 0 0.0 0.0 0.00 0.00 0.00 91 1013.6
20260503022013 13 334 0.0 1.6 0.00 0.00 0.00 90 1013.9
20260503020903 13 4 0.0 3.2 0.00 0.00 0.00 90 1014.0
20260503020003 13 28 0.0 3.2 0.00 0.00 0.00 90 1013.9
20260503015403 13 303 0.0 1.6 0.00 0.00 0.00 90 1014.1
20260503014503 13 245 0.0 1.6 0.00 0.00 0.00 89 1014.2
20260503013603 13 263 0.0 1.6 0.00 0.00 0.00 89 1013.9
20260503012703 13 275 0.0 1.6 0.00 0.00 0.00 88 1014.1
20260503011803 13 0 0.0 0.0 0.00 0.00 0.00 88 1014.1
20260503010903 13 0 0.0 0.0 0.00 0.00 0.00 88 1014.4
20260503010003 13 0 0.0 0.0 0.00 0.00 0.00 87 1014.5
20260503005403 13 0 0.0 0.0 0.00 0.00 0.00 87 1014.5
20260503004713 13 0 0.0 0.0 0.00 0.00 0.00 87 1014.4
20260503003814 13 298 0.0 1.6 0.00 0.00 0.00 88 1014.2
20260503002703 13 264 1.6 1.6 0.00 0.00 0.00 88 1014.6
20260503001803 13 285 0.0 3.2 0.00 0.00 0.00 87 1014.5
20260503000904 13 323 1.6 3.2 0.00 0.00 0.00 87 1014.6
20260503000003 13 285 0.0 1.6 0.00 0.00 0.00 88 1014.6
20260502235403 13 271 0.0 1.6 0.00 0.00 0.00 87 1014.6
20260502234503 13 334 0.0 1.6 0.00 0.00 0.00 87 1014.6
20260502233603 13 305 0.0 1.6 0.00 0.00 0.00 87 1014.8
20260502232913 13 315 0.0 1.6 0.00 0.00 0.00 87 1014.9
20260502231803 13 321 1.6 3.2 0.00 0.00 0.00 87 1015.0
20260502230903 13 300 0.0 1.6 0.00 0.00 0.00 87 1014.8
20260502230011 13 295 0.0 3.2 0.00 0.00 0.00 86 1014.9
20260502225403 14 315 1.6 3.2 0.00 0.00 0.00 87 1014.9
20260502224503 14 307 1.6 4.8 0.00 0.00 0.00 86 1014.8
20260502223603 14 287 0.0 3.2 0.00 0.00 0.00 86 1015.0
20260502222703 14 275 0.0 3.2 0.00 0.00 0.00 86 1014.9
20260502221803 14 299 1.6 3.2 0.00 0.00 0.00 85 1015.1
20260502220903 15 302 0.0 3.2 0.00 0.00 0.00 85 1015.0
20260502220003 15 273 0.0 1.6 0.00 0.00 0.00 85 1015.1
20260502215403 15 276 0.0 1.6 0.00 0.00 0.00 85 1014.9
20260502214503 15 278 0.0 1.6 0.00 0.00 0.00 85 1015.2
20260502213603 15 327 0.0 3.2 0.00 0.00 0.00 85 1015.0
20260502212703 15 309 0.0 3.2 0.00 0.00 0.00 85 1015.2
20260502211803 15 312 1.6 3.2 0.00 0.00 0.00 84 1014.8
20260502210903 15 346 1.6 3.2 0.00 0.00 0.00 84 1015.0
20260502210003 15 347 1.6 3.2 0.00 0.00 0.00 84 1014.7
20260502205403 15 339 1.6 3.2 0.00 0.00 0.00 83 1014.7
20260502204713 16 310 1.6 3.2 0.00 0.00 0.00 84 1014.7
20260502203603 16 283 1.6 4.8 0.00 0.00 0.00 83 1014.6